Regional Weather Roundup
Issued by NWS

Home | Current Version | Previous Version | Text Only | Print | Product List | Glossary On
Versions: 1 2 3 4 5 6 7 8 9 10 11 12 13 14 15 16 17 18 19 20 21 22 23 24 25 26 27 28 29 30 31 32 33 34 35 36 37 38 39 40 41 42 43 44 45 46 47 48 49 50
000
ASUS45 KREV 181410
RWRNV
NEVADA REGIONAL WEATHER ROUNDUP
NATIONAL WEATHER SERVICE RENO NV
700 AM PDT THU SEP 18 2014

NOTE: "FAIR" INDICATES FEW OR NO CLOUDS BELOW 12,000 FEET WITH NO
SIGNIFICANT WEATHER AND/OR OBSTRUCTIONS TO VISIBILITY.

NVZ001-003-004-181500-
WESTERN NEVADA

CITY           SKY/WX    TMP DP  RH WIND       PRES   REMARKS
RENO           PTCLDY    63  45  51 N9        29.92R SMOKE
MINDEN         FAIR      57  41  54 SE12      29.92R
FALLON         PTCLDY    57  36  45 NW3       29.86R
LOVELOCK       MOCLDY    58  36  43 W5        29.86R HAZE
HAWTHORNE      CLEAR     72  34  25 CALM      29.86R
$$

NVZ002-CAZ072-073-181500-
NORTHERN AND CENTRAL SIERRA

CITY           SKY/WX    TMP DP  RH WIND       PRES   REMARKS
S. LAKE TAHOE  CLEAR     57  36  45 SW5       29.99R
TRUCKEE        PTCLDY    57  43  58 SW15G23   30.00R
SQUAW VLY 8000 NOT AVBL
SUSANVILLE     CLOUDY    61  45  55 W6        29.91R
BLUE CANYON    CLOUDY    52  49  89 SE3       29.99S
MAMMOTH LAKES  FAIR      52  32  46 CALM      30.05R
BRIDGEPORT     FAIR      57  35  43 VRB5      30.01R
$$

NVZ030-031-036-181500-
NORTHERN NEVADA

CITY           SKY/WX    TMP DP  RH WIND       PRES   REMARKS
ELKO           MOCLDY    63  45  51 E3        29.92R
WINNEMUCCA     MOCLDY    57  48  72 CALM      29.89R HAZE
WENDOVER       PTCLDY    70  46  43 NE9       29.89R
$$

NVZ035-037-181500-
CENTRAL NEVADA

CITY           SKY/WX    TMP DP  RH WIND       PRES   REMARKS
ELY            PTCLDY    60  47  61 S10       30.05R
EUREKA           N/A     63  48  58 SE14      29.98S
$$

NVZ013-014-181500-
SOUTH CENTRAL NEVADA

CITY           SKY/WX    TMP DP  RH WIND       PRES   REMARKS
TONOPAH        CLEAR     62  50  64 E7        29.96S
$$

NVZ017-020-022-181500-
SOUTHERN NEVADA

CITY           SKY/WX    TMP DP  RH WIND       PRES   REMARKS
LAS VEGAS      PTCLDY    81  60  48 SW7       29.77R
N. LAS VEGAS   CLEAR     79  60  52 E5        29.79R
NELLIS AFB     CLEAR     82  64  54 E2        29.78R
HENDERSON      MOCLDY    81  60  48 S8        29.83R
MERCURY        NOT AVBL
$$



USA.gov is the U.S. government's official web portal to all federal, state and local government web resources and services.